1512770400.84,40600,6.56,72254.3,-9.19,-10.63,-10.71,0,*50
1512770402.14,40601,6.56,72250.8,-9.21,-10.63,-10.71,0,*5A
1512770403.43,40602,6.56,72248.5,-9.21,-10.63,-10.71,0,*59
1512770404.72,40603,6.56,72248.8,-9.21,-10.63,-10.71,0,*58
1512770406.02,40604,6.56,72248.5,-9.21,-10.63,-10.71,0,*5F
1512770407.28,40605,6.56,72252.0,-9.21,-10.57,-10.71,0,*59
1512770408.55,40606,6.56,72250.5,-9.19,-10.71,-10.71,0,*55
1512770409.84,40607,6.56,72252.3,-9.21,-10.63,-10.71,0,*5C
1512770411.11,40608,6.56,72252.3,-9.19,-10.71,-10.75,0,*5F
1512770412.41,40609,6.56,72248.3,-9.21,-10.71,-10.71,0,*51
1512770413.7,40610,6.56,72254.5,-9.21,-10.71,-10.71,0,*59
1512770414.97,40611,6.56,72252.3,-9.19,-10.71,-10.71,0,*53
1512770416.24,40612,6.56,72250.0,-9.19,-10.75,-10.75,0,*50
1512770417.53,40613,6.56,72252.5,-9.21,-10.75,-10.75,0,*5A
1512770418.82,40614,6.56,72252.8,-9.21,-10.71,-10.75,0,*59
1512770420.12,40615,6.56,72250.5,-9.21,-10.75,-10.75,0,*5C
1512770421.41,40616,6.56,72250.0,-9.21,-10.75,-10.75,0,*5F
1512770422.68,40617,6.56,72254.5,-9.19,-10.71,-10.75,0,*51
1512770423.97,40618,6.56,72252.0,-9.21,-10.63,-10.71,0,*52
1512770425.27,40619,6.56,72248.5,-9.21,-10.71,-10.63,0,*53
1512770426.56,40620,6.56,72248.8,-9.21,-10.71,-10.71,0,*5A
1512770427.85,40621,6.56,72244.5,-9.21,-10.71,-10.71,0,*5B
1512770429.15,40622,6.56,72248.8,-9.21,-10.71,-10.63,0,*5B
1512770430.44,40623,6.56,72250.0,-9.21,-10.71,-10.71,0,*59
1512770431.74,40624,6.56,72252.3,-9.21,-10.71,-10.75,0,*5A
1512770433.03,40625,6.56,72254.0,-9.21,-10.71,-10.75,0,*5B
1512770434.32,40626,6.56,72248.8,-9.21,-10.75,-10.75,0,*5C
1512770435.62,40627,6.56,72250.8,-9.21,-10.75,-10.75,0,*5D
1512770436.91,40628,6.56,72250.8,-9.21,-10.71,-10.75,0,*56
1512770438.17,40629,6.56,72250.3,-9.21,-10.71,-10.85,0,*58
1512770439.47,40630,6.56,72246.0,-9.21,-10.75,-10.75,0,*5B
1512770440.73,40631,6.56,72248.3,-9.21,-10.85,-10.75,0,*55
1512770442.02,40632,6.56,72250.3,-9.21,-10.71,-10.71,0,*59
1512770443.32,40633,6.56,72250.8,-9.21,-10.71,-10.71,0,*58
1512770444.61,40634,6.56,72248.0,-9.21,-10.71,-10.71,0,*5F
1512770445.84,40635,6.56,72248.8,-9.21,-10.85,-10.85,0,*5E
1512770447.13,40636,6.56,72248.0,-9.21,-10.75,-10.75,0,*5D
1512770448.39,40637,6.56,72248.5,-9.21,-10.75,-10.85,0,*53
1512770449.69,40638,6.56,72252.3,-9.21,-10.75,-10.75,0,*53
1512770450.98,40639,6.56,72246.5,-9.21,-10.71,-10.75,0,*56
1512770452.24,40640,6.56,72248.3,-9.21,-10.71,-10.85,0,*57
1512770453.54,40641,6.56,72248.3,-9.21,-10.75,-10.75,0,*5D
1512770454.79,40642,6.56,72250.5,-9.21,-10.75,-10.85,0,*51
1512770456.05,40643,6.56,72250.5,-9.21,-10.75,-10.85,0,*50
1512770457.35,40644,6.56,72250.8,-9.21,-10.71,-10.75,0,*5C
1512770458.61,40645,6.56,72248.8,-9.21,-10.75,-10.85,0,*56
1512770459.87,40646,6.56,72252.5,-9.21,-10.75,-10.85,0,*55
1512770461.12,40647,6.56,72250.0,-9.21,-10.75,-10.85,0,*54
1512770462.38,40648,6.56,72254.0,-9.21,-10.75,-10.85,0,*5B
1512770463.68,40649,6.56,72248.8,-9.21,-10.75,-10.75,0,*55
1512770464.97,40650,6.56,72248.5,-9.21,-10.75,-10.75,0,*5D
1512770466.24,40651,6.56,72248.8,-9.21,-10.85,-10.75,0,*53
1512770467.47,40652,6.56,72252.3,-9.21,-10.85,-10.85,0,*5F
1512770468.7,40653,6.56,72250.3,-9.21,-10.85,-10.85,0,*5E
1512770469.93,40654,6.56,72250.0,-9.23,-10.79,-10.89,0,*54
1512770471.17,40655,6.56,72254.8,-9.23,-10.79,-10.89,0,*55
1512770472.43,40656,6.56,72248.3,-9.23,-10.79,-10.79,0,*59
1512770473.67,40657,6.56,72248.8,-9.23,-10.79,-10.89,0,*57
1512770474.93,40658,6.56,72254.5,-9.21,-10.75,-10.85,0,*5A
1512770476.2,40659,6.56,72254.5,-9.19,-10.75,-10.75,0,*5F
1512770477.43,40660,6.56,72254.8,-9.23,-10.79,-10.89,0,*53
1512770478.67,40661,6.56,72250.5,-9.23,-10.89,-10.79,0,*52
1512770479.93,40662,6.56,72248.5,-9.23,-10.79,-10.79,0,*5E
1512770481.19,40663,6.56,72250.3,-9.23,-10.75,-10.79,0,*53
1512770482.45,40664,6.56,72250.5,-9.23,-10.79,-10.79,0,*58
1512770483.69,40665,6.56,72248.5,-9.23,-10.75,-10.89,0,*5A
1512770484.96,40666,6.56,72252.0,-9.27,-10.75,-10.79,0,*52
1512770486.22,40667,6.56,72248.8,-9.23,-10.79,-10.79,0,*5B
1512770487.49,40668,6.56,72248.8,-9.27,-10.75,-10.79,0,*5C
1512770488.76,40669,6.56,72248.0,-9.23,-10.67,-10.75,0,*56
1512770490.02,40670,6.56,72248.5,-9.23,-10.75,-10.75,0,*5D
1512770491.29,40671,6.56,72252.3,-9.23,-10.75,-10.67,0,*5F
1512770492.55,40672,6.56,72252.5,-9.23,-10.75,-10.75,0,*5F
1512770493.76,40673,6.56,72248.3,-9.23,-10.89,-10.89,0,*5E
1512770495.02,40674,6.56,72252.0,-9.23,-10.75,-10.79,0,*55
1512770496.29,40675,6.56,72254.0,-9.23,-10.75,-10.79,0,*54
1512770497.55,40676,6.56,72248.3,-9.23,-10.67,-10.79,0,*54
1512770498.83,40677,6.56,72252.5,-9.23,-10.67,-10.75,0,*59
1512770500.09,40678,6.56,72250.8,-9.23,-10.67,-10.75,0,*56
1512770501.36,40679,6.56,72248.0,-9.23,-10.75,-10.79,0,*58
1512770502.59,40680,6.56,72250.5,-9.23,-10.79,-10.89,0,*5D
1512770503.89,40681,6.56,72250.0,-9.21,-10.63,-10.71,0,*52
1512770505.16,40682,6.56,72248.3,-9.19,-10.63,-10.71,0,*5A
1512770506.42,40683,6.56,72246.5,-9.19,-10.75,-10.75,0,*58
1512770507.72,40684,6.56,72250.3,-9.21,-10.63,-10.71,0,*57
1512770508.98,40685,6.56,72254.0,-9.23,-10.75,-10.75,0,*57
1512770510.25,40686,6.56,72252.0,-9.23,-10.67,-10.75,0,*57
1512770511.54,40687,6.56,72250.3,-9.21,-10.63,-10.71,0,*54
1512770512.81,40688,6.56,72250.5,-9.21,-10.57,-10.71,0,*5C
1512770514.1,40689,6.56,72248.0,-9.21,-10.63,-10.71,0,*5A
1512770515.37,40690,6.56,72250.8,-9.21,-10.57,-10.63,0,*56
1512770516.64,40691,6.56,72250.0,-9.21,-10.57,-10.63,0,*57
1512770517.91,40692,6.56,72252.8,-9.21,-10.57,-10.63,0,*54
1512770519.17,40693,6.56,72248.8,-9.23,-10.67,-10.75,0,*53
1512770520.47,40694,6.56,72254.0,-9.21,-10.63,-10.63,0,*55
1512770521.76,40695,6.56,72248.5,-9.21,-10.71,-10.71,0,*54
1512770523.06,40696,6.56,72252.0,-9.21,-10.63,-10.71,0,*54
1512770524.32,40697,6.56,72248.5,-9.19,-10.63,-10.71,0,*5E
1512770525.62,40698,6.56,72252.5,-9.21,-10.63,-10.71,0,*5A
1512770526.89,40699,6.56,72250.3,-9.21,-10.57,-10.63,0,*5F
1512770528.15,40700,6.56,72250.0,-9.21,-10.57,-10.63,0,*5E
1512770529.42,40701,6.56,72252.0,-9.21,-10.57,-10.71,0,*5C
1512770530.69,40702,6.56,72250.5,-9.21,-10.57,-10.63,0,*5C
1512770531.95,40703,6.56,72248.8,-9.21,-10.57,-10.71,0,*5E
1512770533.25,40704,6.56,72250.3,-9.21,-10.63,-10.63,0,*5D
1512770534.55,40705,6.56,72248.5,-9.21,-10.63,-10.63,0,*5C
1512770535.81,40706,6.56,72250.3,-9.21,-10.57,-10.63,0,*58
1512770537.11,40707,6.56,72252.5,-9.21,-10.63,-10.63,0,*5E
1512770538.4,40708,6.56,72248.8,-9.21,-10.63,-10.71,0,*52
1512770539.7,40709,6.56,72248.0,-9.21,-10.63,-10.63,0,*50
1512770540.99,40710,6.56,72248.3,-9.21,-10.63,-10.63,0,*58
1512770542.29,40711,6.56,72250.3,-9.21,-10.63,-10.71,0,*5A
1512770543.56,40712,6.56,72248.8,-9.21,-10.57,-10.63,0,*5D
1512770544.82,40713,6.56,72250.5,-9.21,-10.57,-10.75,0,*5B
1512770546.09,40714,6.56,72250.0,-9.21,-10.57,-10.71,0,*58
1512770547.36,40715,6.56,72250.8,-9.19,-10.63,-10.63,0,*56
1512770548.63,40716,6.56,72250.5,-9.21,-10.49,-10.63,0,*56
1512770549.9,40717,6.56,72252.0,-9.23,-10.67,-10.67,0,*5D
1512770551.14,40718,6.56,72250.3,-9.19,-10.57,-10.63,0,*5C
1512770552.41,40719,6.56,72250.3,-9.21,-10.57,-10.63,0,*56
1512770553.68,40720,6.56,72248.8,-9.21,-10.57,-10.63,0,*5C
1512770554.93,40721,6.56,72248.3,-9.19,-10.57,-10.63,0,*56
1512770556.19,40722,6.56,72250.8,-9.21,-10.57,-10.71,0,*5D
1512770557.46,40723,6.56,72248.0,-9.21,-10.57,-10.63,0,*5F
1512770558.7,40724,6.56,72248.3,-9.19,-10.57,-10.63,0,*53
1512770559.97,40725,6.56,72250.5,-9.21,-10.57,-10.71,0,*5A
1512770561.24,40726,6.56,72250.5,-9.21,-10.57,-10.63,0,*5A
1512770562.5,40727,6.56,72248.8,-9.21,-10.49,-10.63,0,*54
1512770563.72,40728,6.56,72250.5,-9.19,-10.57,-10.57,0,*58
1512770564.99,40729,6.56,72250.0,-9.19,-10.63,-10.71,0,*5A
1512770566.26,40730,6.56,72246.8,-9.21,-10.57,-10.71,0,*5E
1512770567.52,40731,6.56,72252.0,-9.21,-10.57,-10.63,0,*5C
1512770568.79,40732,6.56,72248.0,-9.21,-10.57,-10.63,0,*5F
1512770570.06,40733,6.56,72248.0,-9.21,-10.57,-10.63,0,*5E
1512770571.32,40734,6.56,72250.3,-9.21,-10.49,-10.71,0,*55
1512770572.59,40735,6.56,72250.0,-9.21,-10.57,-10.63,0,*58
1512770573.83,40736,6.56,72248.0,-9.19,-10.49,-10.63,0,*5F
1512770575.08,40737,6.56,72250.0,-9.19,-10.57,-10.71,0,*52
1512770576.32,40738,6.56,72250.5,-9.19,-10.57,-10.63,0,*5E
1512770577.56,40739,6.56,72248.3,-9.19,-10.57,-10.63,0,*5F
1512770578.81,40740,6.56,72250.0,-9.19,-10.57,-10.63,0,*51
1512770580.08,40741,6.56,72250.0,-9.21,-10.57,-10.63,0,*5B
1512770581.35,40742,6.56,72248.3,-9.21,-10.57,-10.63,0,*58
1512770582.62,40743,6.56,72248.3,-9.21,-10.57,-10.63,0,*59
1512770583.88,40744,6.56,72248.0,-9.21,-10.57,-10.63,0,*5E
1512770585.15,40745,6.56,72250.8,-9.21,-10.57,-10.71,0,*5C
1512770586.42,40746,6.56,72250.0,-9.19,-10.71,-10.63,0,*53
1512770587.69,40747,6.56,72250.5,-9.19,-10.63,-10.71,0,*52
1512770588.93,40748,6.56,72252.0,-9.19,-10.57,-10.63,0,*59
1512770590.18,40749,6.56,72248.0,-9.19,-10.49,-10.63,0,*57
1512770591.42,40750,6.56,72246.0,-9.19,-10.49,-10.71,0,*5C
1512770592.69,40751,6.56,72248.8,-9.19,-10.63,-10.63,0,*56
1512770593.93,40752,6.56,72244.3,-9.19,-10.57,-10.63,0,*52
1512770595.18,40753,6.56,72250.5,-9.19,-10.49,-10.63,0,*5C
1512770596.42,40754,6.56,72250.3,-9.19,-10.57,-10.63,0,*54
1512770597.66,40755,6.56,72250.8,-9.19,-10.49,-10.71,0,*59
1512770598.88,40756,6.56,72248.5,-9.19,-10.57,-10.57,0,*51
1512770600.12,40757,6.56,72250.3,-9.19,-10.57,-10.63,0,*57
1512770601.37,40758,6.56,72248.8,-9.19,-10.57,-10.63,0,*58
1512770602.61,40759,6.56,72250.0,-9.19,-10.49,-10.63,0,*56
1512770603.85,40760,6.56,72248.5,-9.19,-10.49,-10.63,0,*5C
1512770605.12,40761,6.56,72244.0,-9.21,-10.57,-10.63,0,*59
1512770606.36,40762,6.56,72248.5,-9.19,-10.57,-10.71,0,*52
1512770607.63,40763,6.56,72250.5,-9.19,-10.71,-10.63,0,*54
1512770608.91,40764,6.56,72250.5,-9.19,-10.63,-10.63,0,*50
1512770610.15,40765,6.56,72248.3,-9.19,-10.57,-10.71,0,*55
1512770611.39,40766,6.56,72250.0,-9.19,-10.57,-10.63,0,*55
1512770612.63,40767,6.56,72248.0,-9.19,-10.57,-10.71,0,*57
1512770613.88,40768,6.56,72248.8,-9.19,-10.49,-10.63,0,*54
1512770615.14,40769,6.56,72248.3,-9.21,-10.57,-10.71,0,*52
1512770616.43,40770,6.56,72248.8,-9.21,-10.63,-10.71,0,*5D
1512770617.7,40771,6.56,72248.5,-9.19,-10.63,-10.71,0,*57
1512770618.97,40772,6.56,72248.5,-9.19,-10.63,-10.71,0,*54
1512770620.24,40773,6.56,72248.5,-9.19,-10.63,-10.63,0,*56
1512770621.51,40774,6.56,72250.5,-9.17,-10.57,-10.71,0,*5B
1512770622.78,40775,6.56,72246.5,-9.17,-10.53,-10.67,0,*59
1512770624.04,40776,6.56,72248.3,-9.19,-10.63,-10.71,0,*50
1512770625.29,40777,6.56,72250.5,-9.19,-10.57,-10.63,0,*55
1512770626.53,40778,6.56,72248.3,-9.19,-10.57,-10.71,0,*59
1512770627.77,40779,6.56,72248.0,-9.19,-10.57,-10.71,0,*58
1512770629.02,40780,6.56,72248.8,-9.19,-10.57,-10.63,0,*5D
1512770630.26,40781,6.56,72248.5,-9.19,-10.57,-10.63,0,*5C
1512770631.51,40782,6.56,72248.0,-9.19,-10.57,-10.63,0,*5F
1512770632.75,40783,6.56,72250.5,-9.19,-10.57,-10.63,0,*5E
1512770634.0,40784,6.56,72250.3,-9.19,-10.57,-10.63,0,*59
1512770635.27,40785,6.56,72250.8,-9.19,-10.63,-10.71,0,*5C
1512770636.53,40786,6.56,72250.8,-9.19,-10.63,-10.71,0,*5F
1512770637.81,40787,6.56,72252.0,-9.19,-10.63,-10.63,0,*5D
1512770639.08,40788,6.56,72248.8,-9.19,-10.63,-10.63,0,*52
1512770640.35,40789,6.56,72248.0,-9.19,-10.63,-10.71,0,*50
1512770641.59,40790,6.56,72250.8,-9.19,-10.57,-10.71,0,*5F
1512770642.86,40791,6.56,72250.0,-9.17,-10.53,-10.67,0,*53
1512770644.13,40792,6.56,72244.8,-9.19,-10.63,-10.71,0,*5A
1512770645.39,40793,6.56,72248.3,-9.19,-10.63,-10.71,0,*5B
1512770646.66,40794,6.56,72248.8,-9.19,-10.63,-10.71,0,*5C
1512770647.93,40795,6.56,72250.0,-9.19,-10.63,-10.71,0,*5D
1512770649.18,40796,6.56,72248.8,-9.19,-10.57,-10.63,0,*5A
1512770650.45,40797,6.56,72250.8,-9.19,-10.63,-10.71,0,*5F
1512770651.75,40798,6.56,72250.5,-9.17,-10.67,-10.67,0,*5D
1512770653.05,40799,6.56,72250.0,-9.17,-10.67,-10.71,0,*5B
1512770654.32,40800,6.56,72250.8,-9.17,-10.67,-10.57,0,*50
1512770655.59,40801,6.56,72246.8,-9.17,-10.57,-10.67,0,*51
1512770656.86,40802,6.56,72250.8,-9.17,-10.57,-10.67,0,*52
1512770658.14,40803,6.56,72248.8,-9.17,-10.57,-10.67,0,*53
1512770659.38,40804,6.56,72248.0,-9.19,-10.57,-10.63,0,*5E
1512770660.65,40805,6.56,72248.8,-9.19,-10.63,-10.63,0,*58
1512770661.9,40806,6.56,72250.3,-9.19,-10.57,-10.71,0,*5F
1512770663.17,40807,6.56,72248.0,-9.19,-10.63,-10.63,0,*5A
1512770664.39,40808,6.56,72250.3,-9.19,-10.57,-10.57,0,*55
1512770665.6,40809,6.56,72252.8,-9.19,-10.49,-10.49,0,*54
1512770666.84,40810,6.56,72248.5,-9.17,-10.45,-10.53,0,*55
1512770668.08,40811,6.56,72250.8,-9.15,-10.45,-10.53,0,*56
1512770669.31,40812,6.56,72250.0,-9.17,-10.53,-10.53,0,*50
1512770670.55,40813,6.56,72248.0,-9.17,-10.53,-10.57,0,*55
1512770671.78,40814,6.56,72252.8,-9.17,-10.53,-10.57,0,*52
1512770673.02,40815,6.56,72252.3,-9.17,-10.53,-10.57,0,*53
1512770674.26,40816,6.56,72246.0,-9.17,-10.53,-10.53,0,*54
1512770675.47,40817,6.56,72250.8,-9.19,-10.57,-10.57,0,*5B
1512770676.69,40818,6.56,72250.8,-9.19,-10.49,-10.57,0,*5B
1512770677.91,40819,6.56,72248.5,-9.19,-10.49,-10.57,0,*5A
1512770679.14,40820,6.56,72248.8,-9.17,-10.53,-10.53,0,*51
1512770680.38,40821,6.56,72248.5,-9.17,-10.45,-10.57,0,*53
1512770681.62,40822,6.56,72250.5,-9.17,-10.45,-10.53,0,*54
1512770682.85,40823,6.56,72254.3,-9.17,-10.53,-10.53,0,*52
1512770684.09,40824,6.56,72250.3,-9.17,-10.53,-10.57,0,*51
1512770685.33,40825,6.56,72248.5,-9.17,-10.53,-10.57,0,*50
1512770686.57,40826,6.56,72246.8,-9.17,-10.45,-10.57,0,*54
1512770687.8,40827,6.56,72250.0,-9.17,-10.53,-10.57,0,*52
1512770689.04,40828,6.56,72248.5,-9.17,-10.45,-10.57,0,*5A
1512770690.26,40829,6.56,72250.3,-9.19,-10.57,-10.57,0,*56
1512770691.48,40830,6.56,72248.3,-9.19,-10.49,-10.57,0,*51
1512770692.71,40831,6.56,72248.8,-9.17,-10.53,-10.57,0,*55
1512770693.95,40832,6.56,72248.8,-9.21,-10.49,-10.57,0,*58
1512770695.17,40833,6.56,72250.5,-9.19,-10.57,-10.57,0,*5D
1512770696.39,40834,6.56,72250.5,-9.19,-10.49,-10.57,0,*55
1512770697.63,40835,6.56,72250.8,-9.19,-10.49,-10.63,0,*53
1512770698.87,40836,6.56,72250.8,-9.19,-10.57,-10.71,0,*5C
1512770700.11,40837,6.56,72250.0,-9.19,-10.57,-10.63,0,*5E
1512770701.36,40838,6.56,72252.0,-9.19,-10.57,-10.63,0,*51
1512770702.6,40839,6.56,72248.3,-9.19,-10.57,-10.63,0,*50
1512770703.84,40840,6.56,72248.0,-9.17,-10.45,-10.57,0,*54
1512770705.08,40841,6.56,72250.0,-9.17,-10.53,-10.53,0,*56
1512770706.32,40842,6.56,72252.3,-9.17,-10.57,-10.45,0,*56
1512770707.54,40843,6.56,72250.5,-9.19,-10.49,-10.57,0,*55
1512770708.77,40844,6.56,72254.0,-9.17,-10.45,-10.53,0,*54
1512770710.01,40845,6.56,72252.0,-9.17,-10.45,-10.53,0,*55
1512770711.25,40846,6.56,72250.5,-9.17,-10.45,-10.53,0,*56
1512770712.49,40847,6.56,72252.3,-9.17,-10.53,-10.53,0,*50
1512770713.7,40848,6.56,72254.0,-9.19,-10.49,-10.49,0,*51
1512770714.92,40849,6.56,72250.3,-9.19,-10.49,-10.57,0,*5F
1512770716.14,40850,6.56,72248.3,-9.19,-10.57,-10.49,0,*57
1512770717.36,40851,6.56,72252.0,-9.19,-10.57,-10.49,0,*56
1512770718.57,40852,6.56,72250.3,-9.19,-10.49,-10.57,0,*55
1512770719.79,40853,6.56,72250.0,-9.19,-10.57,-10.57,0,*5B
1512770721.01,40854,6.56,72252.0,-9.19,-10.57,-10.57,0,*5C
1512770722.22,40855,6.56,72248.3,-9.19,-10.57,-10.57,0,*5D
1512770723.44,40856,6.56,72254.0,-9.19,-10.57,-10.49,0,*51
1512770724.68,40857,6.56,72254.5,-9.15,-10.45,-10.45,0,*53
1512770725.9,40858,6.56,72250.0,-9.19,-10.49,-10.49,0,*50
1512770727.11,40859,6.56,72248.0,-9.19,-10.49,-10.57,0,*5E
1512770728.33,40860,6.56,72248.8,-9.19,-10.49,-10.49,0,*5B
1512770729.56,40861,6.56,72250.8,-9.17,-10.53,-10.53,0,*54
1512770730.8,40862,6.56,72252.3,-9.17,-10.53,-10.45,0,*50
1512770732.03,40863,6.56,72248.3,-9.17,-10.53,-10.53,0,*56
1512770733.27,40864,6.56,72252.5,-9.17,-10.45,-10.53,0,*56
1512770734.51,40865,6.56,72250.8,-9.17,-10.53,-10.45,0,*57
1512770735.74,40866,6.56,72252.0,-9.17,-10.53,-10.53,0,*53
1512770736.96,40867,6.56,72252.0,-9.19,-10.57,-10.49,0,*53
1512770738.18,40868,6.56,72252.0,-9.19,-10.49,-10.57,0,*5C
1512770739.4,40869,6.56,72250.3,-9.19,-10.57,-10.49,0,*5D
1512770740.61,40870,6.56,72250.8,-9.19,-10.57,-10.49,0,*55
1512770741.83,40871,6.56,72248.8,-9.19,-10.49,-10.57,0,*54
1512770743.05,40872,6.56,72254.3,-9.19,-10.49,-10.49,0,*58
1512770744.26,40873,6.56,72252.3,-9.19,-10.57,-10.57,0,*59
1512770745.5,40874,6.56,72252.5,-9.17,-10.53,-10.53,0,*50
1512770746.72,40875,6.56,72250.8,-9.19,-10.57,-10.57,0,*5F
1512770747.94,40876,6.56,72252.3,-9.19,-10.57,-10.49,0,*53
1512770749.15,40877,6.56,72250.3,-9.19,-10.57,-10.49,0,*52
1512770750.39,40878,6.56,72252.5,-9.17,-10.45,-10.53,0,*5B
1512770751.63,40879,6.56,72250.8,-9.17,-10.45,-10.45,0,*5D
1512770752.87,40880,6.56,72252.8,-9.17,-10.45,-10.45,0,*5B
1512770754.11,40881,6.56,72252.3,-9.15,-10.45,-10.45,0,*58
1512770755.34,40882,6.56,72250.0,-9.17,-10.53,-10.45,0,*5E
1512770756.58,40883,6.56,72254.0,-9.17,-10.53,-10.53,0,*58
1512770757.82,40884,6.56,72252.0,-9.17,-10.53,-10.53,0,*5F
1512770759.05,40885,6.56,72254.5,-9.17,-10.45,-10.45,0,*5E
1512770760.29,40886,6.56,72248.3,-9.17,-10.45,-10.53,0,*5A
1512770761.53,40887,6.56,72254.5,-9.17,-10.45,-10.53,0,*5B
1512770762.77,40888,6.56,72250.0,-9.17,-10.45,-10.53,0,*54
1512770764.01,40889,6.56,72250.3,-9.15,-10.45,-10.45,0,*50
1512770765.24,40890,6.56,72252.0,-9.17,-10.53,-10.53,0,*5A
1512770766.51,40891,6.56,72250.5,-9.17,-10.41,-10.45,0,*5F
1512770767.75,40892,6.56,72250.8,-9.17,-10.31,-10.45,0,*5B
1512770769.02,40893,6.56,72252.3,-9.17,-10.31,-10.41,0,*5E
1512770770.3,40894,6.56,72252.5,-9.17,-10.41,-10.31,0,*59
1512770771.57,40895,6.56,72246.5,-9.17,-10.31,-10.41,0,*58
1512770772.87,40896,6.56,72252.3,-9.17,-10.41,-10.41,0,*5C
1512770774.16,40897,6.56,72252.3,-9.17,-10.41,-10.41,0,*5D
1512770775.46,40898,6.56,72252.0,-9.17,-10.41,-10.41,0,*52
1512770776.7,40899,6.56,72254.0,-9.17,-10.45,-10.45,0,*53
1512770777.94,40900,6.56,72250.5,-9.17,-10.45,-10.45,0,*52
1512770779.18,40901,6.56,72250.3,-9.15,-10.45,-10.45,0,*51
1512770780.42,40902,6.56,72248.8,-9.17,-10.31,-10.31,0,*50
1512770781.72,40903,6.56,72248.3,-9.15,-10.41,-10.41,0,*53
1512770782.98,40904,6.56,72250.5,-9.15,-10.41,-10.45,0,*50
1512770784.25,40905,6.56,72248.5,-9.15,-10.41,-10.31,0,*52
1512770785.55,40906,6.56,72254.3,-9.17,-10.41,-10.41,0,*54
1512770786.82,40907,6.56,72250.5,-9.17,-10.41,-10.45,0,*51
1512770788.08,40908,6.56,72252.0,-9.17,-10.41,-10.45,0,*5E
1512770789.35,40909,6.56,72248.0,-9.17,-10.41,-10.45,0,*5F
1512770790.62,40910,6.56,72252.8,-9.17,-10.41,-10.45,0,*57
1512770791.84,40911,6.56,72250.0,-9.19,-10.57,-10.49,0,*53
1512770793.05,40912,6.56,72248.5,-9.19,-10.45,-10.49,0,*53
1512770794.35,40913,6.56,72248.8,-9.17,-10.41,-10.41,0,*50
1512770795.65,40914,6.56,72252.0,-9.15,-10.41,-10.41,0,*55
1512770796.89,40915,6.56,72252.0,-9.17,-10.31,-10.45,0,*55
1512770798.13,40916,6.56,72254.0,-9.17,-10.31,-10.45,0,*56
1512770799.43,40917,6.56,72252.5,-9.17,-10.41,-10.41,0,*54
1512770800.73,40918,6.56,72250.3,-9.17,-10.41,-10.41,0,*5B
1512770802.0,40919,6.56,72248.3,-9.17,-10.31,-10.41,0,*5D
1512770803.24,40920,6.56,72248.0,-9.17,-10.31,-10.31,0,*50
1512770804.49,40921,6.56,72250.5,-9.17,-10.31,-10.31,0,*51
1512770805.73,40922,6.56,72250.8,-9.17,-10.31,-10.31,0,*52
1512770806.98,40923,6.56,72246.0,-9.17,-10.31,-10.31,0,*53
1512770808.22,40924,6.56,72250.5,-9.17,-10.31,-10.31,0,*54
1512770809.49,40925,6.56,72252.3,-9.17,-10.31,-10.41,0,*52
1512770810.74,40926,6.56,72248.8,-9.17,-10.31,-10.31,0,*56
1512770812.01,40927,6.56,72252.0,-9.15,-10.41,-10.31,0,*52
1512770813.25,40928,6.56,72252.8,-9.15,-10.31,-10.31,0,*5A
1512770814.55,40929,6.56,72254.3,-9.17,-10.41,-10.41,0,*59
1512770815.81,40930,6.56,72254.5,-9.15,-10.31,-10.41,0,*54
1512770817.11,40931,6.56,72254.0,-9.17,-10.41,-10.41,0,*50
1512770818.36,40932,6.56,72250.0,-9.15,-10.31,-10.31,0,*51
1512770819.6,40933,6.56,72248.3,-9.17,-10.31,-10.31,0,*52
1512770820.84,40934,6.56,72250.3,-9.15,-10.31,-10.31,0,*57
1512770822.11,40935,6.56,72248.8,-9.17,-10.41,-10.31,0,*53
1512770823.36,40936,6.56,72248.5,-9.15,-10.31,-10.31,0,*55
1512770824.62,40937,6.56,72250.3,-9.15,-10.41,-10.45,0,*50
1512770825.89,40938,6.56,72250.8,-9.17,-10.31,-10.41,0,*5E
1512770827.14,40939,6.56,72252.5,-9.17,-10.31,-10.31,0,*58
1512770828.38,40940,6.56,72250.3,-9.17,-10.31,-10.31,0,*56
1512770829.63,40941,6.56,72252.3,-9.15,-10.31,-10.31,0,*55
1512770830.92,40942,6.56,72250.8,-9.17,-10.41,-10.41,0,*54
1512770832.19,40943,6.56,72248.3,-9.15,-10.41,-10.45,0,*53
1512770833.46,40944,6.56,72252.3,-9.17,-10.31,-10.41,0,*55
1512770834.76,40945,6.56,72254.3,-9.17,-10.41,-10.41,0,*53
1512770836.03,40946,6.56,72250.0,-9.17,-10.31,-10.41,0,*57
1512770837.3,40947,6.56,72254.3,-9.17,-10.31,-10.41,0,*56
1512770838.6,40948,6.56,72250.8,-9.15,-10.41,-10.41,0,*5C
1512770839.87,40949,6.56,72248.5,-9.17,-10.41,-10.31,0,*58
1512770841.14,40950,6.56,72248.5,-9.17,-10.41,-10.31,0,*50
1512770842.43,40951,6.56,72250.5,-9.15,-10.41,-10.41,0,*54
1512770843.73,40952,6.56,72252.0,-9.17,-10.41,-10.41,0,*55
1512770845.03,40953,6.56,72250.5,-9.17,-10.41,-10.41,0,*54
1512770846.33,40954,6.56,72248.8,-9.17,-10.41,-10.41,0,*53
1512770847.6,40955,6.56,72250.3,-9.17,-10.31,-10.41,0,*55
1512770848.89,40956,6.56,72248.8,-9.15,-10.41,-10.41,0,*53
1512770850.16,40957,6.56,72252.3,-9.17,-10.41,-10.31,0,*57
1512770851.46,40958,6.56,72248.8,-9.17,-10.41,-10.41,0,*5F
1512770852.7,40959,6.56,72248.3,-9.15,-10.31,-10.31,0,*5C
1512770853.98,40960,6.56,72248.8,-9.17,-10.31,-10.41,0,*53
1512770855.27,40961,6.56,72248.0,-9.15,-10.41,-10.41,0,*57
1512770856.57,40962,6.56,72252.8,-9.15,-10.41,-10.41,0,*54
1512770857.86,40963,6.56,72254.3,-9.15,-10.41,-10.41,0,*55
1512770859.13,40964,6.56,72254.0,-9.15,-10.45,-10.41,0,*56
1512770860.4,40965,6.56,72252.5,-9.17,-10.31,-10.41,0,*56
1512770861.67,40966,6.56,72254.0,-9.17,-10.41,-10.45,0,*56
1512770862.96,40967,6.56,72250.5,-9.15,-10.41,-10.41,0,*51
1512770864.21,40968,6.56,72250.3,-9.17,-10.31,-10.31,0,*5C
1512770865.48,40969,6.56,72252.8,-9.17,-10.45,-10.41,0,*59
1512770866.77,40970,6.56,72254.8,-9.15,-10.41,-10.41,0,*57
1512770868.01,40971,6.56,72254.8,-9.17,-10.53,-10.53,0,*54
1512770869.24,40972,6.56,72250.3,-9.15,-10.53,-10.53,0,*55
1512770870.48,40973,6.56,72252.3,-9.17,-10.53,-10.45,0,*51
1512770871.72,40974,6.56,72252.3,-9.15,-10.45,-10.45,0,*53
1512770872.95,40975,6.56,72248.5,-9.15,-10.45,-10.53,0,*55
1512770874.19,40976,6.56,72254.8,-9.17,-10.45,-10.53,0,*54
1512770875.43,40977,6.56,72248.0,-9.17,-10.53,-10.53,0,*52
1512770876.72,40978,6.56,72248.3,-9.17,-10.41,-10.41,0,*5D
1512770877.99,40979,6.56,72250.8,-9.17,-10.45,-10.41,0,*58
1512770879.26,40980,6.56,72254.3,-9.15,-10.45,-10.41,0,*5C
1512770880.53,40981,6.56,72248.5,-9.17,-10.31,-10.41,0,*5C
1512770881.83,40982,6.56,72254.3,-9.17,-10.41,-10.41,0,*58
1512770883.07,40983,6.56,72248.3,-9.17,-10.31,-10.31,0,*59
1512770884.34,40984,6.56,72254.8,-9.17,-10.41,-10.31,0,*59
1512770885.59,40985,6.56,72254.0,-9.17,-10.31,-10.27,0,*58
1512770886.83,40986,6.56,72252.8,-9.17,-10.31,-10.31,0,*5C
1512770888.07,40987,6.56,72254.8,-9.15,-10.31,-10.45,0,*5C
1512770889.37,40988,6.56,72252.3,-9.17,-10.41,-10.41,0,*52
1512770890.64,40989,6.56,72252.0,-9.17,-10.45,-10.41,0,*57
1512770891.88,40990,6.56,72252.8,-9.17,-10.31,-10.45,0,*58
1512770893.15,40991,6.56,72252.0,-9.17,-10.41,-10.31,0,*5D
1512770894.42,40992,6.56,72252.5,-9.17,-10.45,-10.41,0,*5D
1512770895.69,40993,6.56,72252.3,-9.17,-10.45,-10.41,0,*5C
1512770896.96,40994,6.56,72252.5,-9.17,-10.41,-10.27,0,*5F
1512770898.24,40995,6.56,72254.5,-9.17,-10.41,-10.31,0,*59
1512770899.48,40996,6.56,72252.8,-9.17,-10.31,-10.31,0,*5D
1512770900.75,40997,6.56,72248.3,-9.17,-10.31,-10.41,0,*5B
1512770902.05,40998,6.56,72252.3,-9.17,-10.41,-10.41,0,*53
1512770903.32,40999,6.56,72252.0,-9.17,-10.31,-10.41,0,*55
1512770904.56,41000,6.56,72250.3,-9.17,-10.31,-10.31,0,*5A
1512770905.78,41001,6.56,72250.0,-9.19,-10.49,-10.45,0,*59
1512770907.0,41002,6.56,72252.3,-9.19,-10.45,-10.35,0,*51
1512770908.22,41003,6.56,72254.0,-9.19,-10.45,-10.35,0,*50
1512770909.45,41004,6.56,72254.0,-9.19,-10.35,-10.35,0,*50
1512770910.68,41005,6.56,72254.0,-9.19,-10.35,-10.35,0,*51
1512770911.9,41006,6.56,72250.5,-9.19,-10.35,-10.45,0,*55